Year,Month,Day,Hour,Minute,Value (Times are PST for temperature in C)
2019,03,19,00,00,5.60
2019,03,19,00,01,5.60
2019,03,19,00,02,5.60
2019,03,19,00,03,5.60
2019,03,19,00,04,5.60
2019,03,19,00,05,5.60
2019,03,19,00,06,5.60
2019,03,19,00,07,5.60
2019,03,19,00,08,5.60
2019,03,19,00,09,5.60
2019,03,19,00,10,5.60
2019,03,19,00,11,5.60
2019,03,19,00,12,5.60
2019,03,19,00,13,5.60
2019,03,19,00,14,5.60
2019,03,19,00,15,5.60
2019,03,19,00,16,5.60
2019,03,19,00,17,5.60
2019,03,19,00,18,5.60
2019,03,19,00,19,5.50
2019,03,19,00,20,5.50
2019,03,19,00,21,5.50
2019,03,19,00,22,5.50
2019,03,19,00,23,5.50
2019,03,19,00,24,5.50
2019,03,19,00,25,5.40
2019,03,19,00,26,5.40
2019,03,19,00,27,5.40
2019,03,19,00,28,5.40
2019,03,19,00,29,5.40
2019,03,19,00,30,5.40
2019,03,19,00,31,5.40
2019,03,19,00,32,5.30
2019,03,19,00,33,5.30
2019,03,19,00,34,5.30
2019,03,19,00,35,5.20
2019,03,19,00,36,5.20
2019,03,19,00,37,5.20
2019,03,19,00,38,5.20
2019,03,19,00,39,5.20
2019,03,19,00,40,5.10
2019,03,19,00,41,5.10
2019,03,19,00,42,5.10
2019,03,19,00,43,5.10
2019,03,19,00,44,5.20
2019,03,19,00,45,5.20
2019,03,19,00,46,5.20
2019,03,19,00,47,5.20
2019,03,19,00,48,5.20
2019,03,19,00,49,5.20
2019,03,19,00,50,5.20
2019,03,19,00,51,5.20
2019,03,19,00,52,5.20
2019,03,19,00,53,5.20
2019,03,19,00,54,5.20
2019,03,19,00,55,5.10
2019,03,19,00,56,5.10
2019,03,19,00,57,5.10
2019,03,19,00,58,5.00
2019,03,19,00,59,5.00
2019,03,19,01,00,5.00
2019,03,19,01,01,4.90
2019,03,19,01,02,4.90
2019,03,19,01,03,4.90
2019,03,19,01,04,4.90
2019,03,19,01,05,4.90
2019,03,19,01,06,4.90
2019,03,19,01,07,4.90
2019,03,19,01,08,4.90
2019,03,19,01,09,4.90
2019,03,19,01,10,4.90
2019,03,19,01,11,4.90
2019,03,19,01,12,4.90
2019,03,19,01,13,4.80
2019,03,19,01,14,4.80
2019,03,19,01,15,4.80
2019,03,19,01,16,4.80
2019,03,19,01,17,4.80
2019,03,19,01,18,4.80
2019,03,19,01,19,4.80
2019,03,19,01,20,4.70
2019,03,19,01,21,4.70
2019,03,19,01,22,4.70
2019,03,19,01,23,4.70
2019,03,19,01,24,4.70
2019,03,19,01,25,4.70
2019,03,19,01,26,4.70
2019,03,19,01,27,4.60
2019,03,19,01,28,4.60
2019,03,19,01,29,4.60
2019,03,19,01,30,4.60
2019,03,19,01,31,4.60
2019,03,19,01,32,4.60
2019,03,19,01,33,4.60
2019,03,19,01,34,4.50
2019,03,19,01,35,4.50
2019,03,19,01,36,4.50
2019,03,19,01,37,4.50
2019,03,19,01,38,4.40
2019,03,19,01,39,4.40
2019,03,19,01,40,4.40
2019,03,19,01,41,4.40
2019,03,19,01,42,4.40
2019,03,19,01,43,4.40
2019,03,19,01,44,4.40
2019,03,19,01,45,4.40
2019,03,19,01,46,4.40
2019,03,19,01,47,4.40
2019,03,19,01,48,4.40
2019,03,19,01,49,4.40
2019,03,19,01,50,4.40
2019,03,19,01,51,4.40
2019,03,19,01,52,4.40
2019,03,19,01,53,4.40
2019,03,19,01,54,4.40
2019,03,19,01,55,4.40
2019,03,19,01,56,4.40
2019,03,19,01,57,4.40
2019,03,19,01,58,4.30
2019,03,19,01,59,4.30
2019,03,19,02,00,4.30
2019,03,19,02,01,4.30
2019,03,19,02,02,4.30
2019,03,19,02,03,4.30
2019,03,19,02,04,4.20
2019,03,19,02,05,4.20
2019,03,19,02,06,4.20
2019,03,19,02,07,4.20
2019,03,19,02,08,4.20
2019,03,19,02,09,4.20
2019,03,19,02,10,4.20
2019,03,19,02,11,4.20
2019,03,19,02,12,4.30
2019,03,19,02,13,4.30
2019,03,19,02,14,4.30
2019,03,19,02,15,4.30
2019,03,19,02,16,4.30
2019,03,19,02,17,4.30
2019,03,19,02,18,4.30
2019,03,19,02,19,4.30
2019,03,19,02,20,4.30
2019,03,19,02,21,4.30
2019,03,19,02,22,4.30
2019,03,19,02,23,4.20
2019,03,19,02,24,4.20
2019,03,19,02,25,4.20
2019,03,19,02,26,4.20
2019,03,19,02,27,4.20
2019,03,19,02,28,4.20
2019,03,19,02,29,4.20
2019,03,19,02,30,4.20
2019,03,19,02,31,4.20
2019,03,19,02,32,4.20
2019,03,19,02,33,4.20
2019,03,19,02,34,4.20
2019,03,19,02,35,4.20
2019,03,19,02,36,4.20
2019,03,19,02,37,4.30
2019,03,19,02,38,4.20
2019,03,19,02,39,4.30
2019,03,19,02,40,4.30
2019,03,19,02,41,4.30
2019,03,19,02,42,4.30
2019,03,19,02,43,4.30
2019,03,19,02,44,4.30
2019,03,19,02,45,4.20
2019,03,19,02,46,4.20
2019,03,19,02,47,4.20
2019,03,19,02,48,4.20
2019,03,19,02,49,4.20
2019,03,19,02,50,4.20
2019,03,19,02,51,4.20
2019,03,19,02,52,4.20
2019,03,19,02,53,4.20
2019,03,19,02,54,4.20
2019,03,19,02,55,4.20
2019,03,19,02,56,4.20
2019,03,19,02,57,4.20
2019,03,19,02,58,4.20
2019,03,19,02,59,4.20
2019,03,19,03,00,4.20
2019,03,19,03,01,4.20
2019,03,19,03,02,4.20
2019,03,19,03,03,4.10
2019,03,19,03,04,4.10
2019,03,19,03,05,4.10
2019,03,19,03,06,4.00
2019,03,19,03,07,4.00
2019,03,19,03,08,3.90
2019,03,19,03,09,3.90
2019,03,19,03,10,3.90
2019,03,19,03,11,3.80
2019,03,19,03,12,3.80
2019,03,19,03,13,3.80
2019,03,19,03,14,3.80
2019,03,19,03,15,3.80
2019,03,19,03,16,3.80
2019,03,19,03,17,3.70
2019,03,19,03,18,3.70
2019,03,19,03,19,3.70
2019,03,19,03,20,3.70
2019,03,19,03,21,3.70
2019,03,19,03,22,3.70
2019,03,19,03,23,3.70
2019,03,19,03,24,3.70
2019,03,19,03,25,3.70
2019,03,19,03,26,3.70
2019,03,19,03,27,3.60
2019,03,19,03,28,3.60
2019,03,19,03,29,3.60
2019,03,19,03,30,3.60
2019,03,19,03,31,3.60
2019,03,19,03,32,3.60
2019,03,19,03,33,3.60
2019,03,19,03,34,3.60
2019,03,19,03,35,3.60
2019,03,19,03,36,3.60
2019,03,19,03,37,3.60
2019,03,19,03,38,3.60
2019,03,19,03,39,3.60
2019,03,19,03,40,3.60
2019,03,19,03,41,3.60
2019,03,19,03,42,3.60
2019,03,19,03,43,3.60
2019,03,19,03,44,3.60
2019,03,19,03,45,3.50
2019,03,19,03,46,3.50
2019,03,19,03,47,3.50
2019,03,19,03,48,3.50
2019,03,19,03,49,3.50
2019,03,19,03,50,3.40
2019,03,19,03,51,3.40
2019,03,19,03,52,3.40
2019,03,19,03,53,3.40
2019,03,19,03,54,3.40
2019,03,19,03,55,3.40
2019,03,19,03,56,3.40
2019,03,19,03,57,3.40
2019,03,19,03,58,3.30
2019,03,19,03,59,3.30
2019,03,19,04,00,3.30
2019,03,19,04,01,3.30
2019,03,19,04,02,3.30
2019,03,19,04,03,3.30
2019,03,19,04,04,3.30
2019,03,19,04,05,3.30
2019,03,19,04,06,3.30
2019,03,19,04,07,3.30
2019,03,19,04,08,3.30
2019,03,19,04,09,3.30
2019,03,19,04,10,3.30
2019,03,19,04,11,3.30
2019,03,19,04,12,3.20
2019,03,19,04,13,3.20
2019,03,19,04,14,3.20
2019,03,19,04,15,3.20
2019,03,19,04,16,3.20
2019,03,19,04,17,3.20
2019,03,19,04,18,3.20
2019,03,19,04,19,3.20
2019,03,19,04,20,3.20
2019,03,19,04,21,3.20
2019,03,19,04,22,3.20
2019,03,19,04,23,3.20
2019,03,19,04,24,3.20
2019,03,19,04,25,3.20
2019,03,19,04,26,3.20
2019,03,19,04,27,3.20
2019,03,19,04,28,3.20
2019,03,19,04,29,3.20
2019,03,19,04,30,3.10
2019,03,19,04,31,3.20
2019,03,19,04,32,3.20
2019,03,19,04,33,3.20
2019,03,19,04,34,3.20
2019,03,19,04,35,3.20
2019,03,19,04,36,3.20
2019,03,19,04,37,3.30
2019,03,19,04,38,3.40
2019,03,19,04,39,3.40
2019,03,19,04,40,3.50
2019,03,19,04,41,3.50
2019,03,19,04,42,3.60
2019,03,19,04,43,3.60
2019,03,19,04,44,3.60
2019,03,19,04,45,3.60
2019,03,19,04,46,3.60
2019,03,19,04,47,3.60
2019,03,19,04,48,3.60
2019,03,19,04,49,3.60
2019,03,19,04,50,3.60
2019,03,19,04,51,3.60
2019,03,19,04,52,3.60
2019,03,19,04,53,3.60
2019,03,19,04,54,3.60
2019,03,19,04,55,3.60
2019,03,19,04,56,3.60
2019,03,19,04,57,3.60
2019,03,19,04,58,3.70
2019,03,19,04,59,3.70
2019,03,19,05,00,3.70
2019,03,19,05,01,3.70
2019,03,19,05,02,3.70
2019,03,19,05,03,3.70
2019,03,19,05,04,3.70
2019,03,19,05,05,3.70
2019,03,19,05,06,3.70
2019,03,19,05,07,3.70
2019,03,19,05,08,3.70
2019,03,19,05,09,3.60
2019,03,19,05,10,3.60
2019,03,19,05,11,3.70
2019,03,19,05,12,3.70
2019,03,19,05,13,3.70
2019,03,19,05,14,3.70
2019,03,19,05,15,3.70
2019,03,19,05,16,3.70
2019,03,19,05,17,3.70
2019,03,19,05,18,3.70
2019,03,19,05,19,3.70
2019,03,19,05,20,3.60
2019,03,19,05,21,3.60
2019,03,19,05,22,3.60
2019,03,19,05,23,3.60
2019,03,19,05,24,3.60
2019,03,19,05,25,3.60
2019,03,19,05,26,3.70
2019,03,19,05,27,3.70
2019,03,19,05,28,3.70
2019,03,19,05,29,3.70
2019,03,19,05,30,3.70
2019,03,19,05,31,3.70
2019,03,19,05,32,3.70
2019,03,19,05,33,3.70
2019,03,19,05,34,3.70
2019,03,19,05,35,3.70
2019,03,19,05,36,3.70
2019,03,19,05,37,3.60
2019,03,19,05,38,3.50
2019,03,19,05,39,3.50
2019,03,19,05,40,3.40
2019,03,19,05,41,3.30
2019,03,19,05,42,3.30
2019,03,19,05,43,3.30
2019,03,19,05,44,3.20
2019,03,19,05,45,3.20
2019,03,19,05,46,3.20
2019,03,19,05,47,3.20
2019,03,19,05,48,3.10
2019,03,19,05,49,3.10
2019,03,19,05,50,3.00
2019,03,19,05,51,3.00
2019,03,19,05,52,3.00
2019,03,19,05,53,2.90
2019,03,19,05,54,2.90
2019,03,19,05,55,2.90
2019,03,19,05,56,2.90
2019,03,19,05,57,3.00
2019,03,19,05,58,3.10
2019,03,19,05,59,3.10
2019,03,19,06,00,3.10
2019,03,19,06,01,3.20
2019,03,19,06,02,3.10
2019,03,19,06,03,3.10
2019,03,19,06,04,3.10
2019,03,19,06,05,3.10
2019,03,19,06,06,3.20
2019,03,19,06,07,3.20
2019,03,19,06,08,3.20
2019,03,19,06,09,3.20
2019,03,19,06,10,3.10
2019,03,19,06,11,3.10
2019,03,19,06,12,3.00
2019,03,19,06,13,2.90
2019,03,19,06,14,2.90
2019,03,19,06,15,2.80
2019,03,19,06,16,2.80
2019,03,19,06,17,2.70
2019,03,19,06,18,2.70
2019,03,19,06,19,2.70
2019,03,19,06,20,2.70
2019,03,19,06,21,2.70
2019,03,19,06,22,2.70
2019,03,19,06,23,2.70
2019,03,19,06,24,2.60
2019,03,19,06,25,2.60
2019,03,19,06,26,2.60
2019,03,19,06,27,2.60
2019,03,19,06,28,2.50
2019,03,19,06,29,2.50
2019,03,19,06,30,2.40
2019,03,19,06,31,2.40
2019,03,19,06,32,2.40
2019,03,19,06,33,2.40
2019,03,19,06,34,2.40
2019,03,19,06,35,2.40
2019,03,19,06,36,2.40
2019,03,19,06,37,2.40
2019,03,19,06,38,2.40
2019,03,19,06,39,2.50
2019,03,19,06,40,2.50
2019,03,19,06,41,2.50
2019,03,19,06,42,2.50
2019,03,19,06,43,2.40
2019,03,19,06,44,2.40
2019,03,19,06,45,2.40
2019,03,19,06,46,2.40
2019,03,19,06,47,2.30
2019,03,19,06,48,2.30
2019,03,19,06,49,2.30
2019,03,19,06,50,2.30
2019,03,19,06,51,2.30
2019,03,19,06,52,2.30
2019,03,19,06,53,2.30
2019,03,19,06,54,2.30
2019,03,19,06,55,2.30
2019,03,19,06,56,2.30
2019,03,19,06,57,2.30
2019,03,19,06,58,2.40
2019,03,19,06,59,2.40
2019,03,19,07,00,2.30
2019,03,19,07,01,2.30
2019,03,19,07,02,2.30
2019,03,19,07,03,2.30
2019,03,19,07,04,2.30
2019,03,19,07,05,2.30
2019,03,19,07,06,2.30
2019,03,19,07,07,2.30
2019,03,19,07,08,2.30
2019,03,19,07,09,2.30
2019,03,19,07,10,2.30
2019,03,19,07,11,2.30
2019,03,19,07,12,2.30
2019,03,19,07,13,2.30
2019,03,19,07,14,2.30
2019,03,19,07,15,2.30
2019,03,19,07,16,2.30
2019,03,19,07,17,2.30
2019,03,19,07,18,2.30
2019,03,19,07,19,2.30
2019,03,19,07,20,2.30
2019,03,19,07,21,2.30
2019,03,19,07,22,2.30
2019,03,19,07,23,2.30
2019,03,19,07,24,2.30
2019,03,19,07,25,2.30
2019,03,19,07,26,2.30
2019,03,19,07,27,2.40
2019,03,19,07,28,2.40
2019,03,19,07,29,2.40
2019,03,19,07,30,2.40
2019,03,19,07,31,2.40
2019,03,19,07,32,2.40
2019,03,19,07,33,2.30
2019,03,19,07,34,2.30
2019,03,19,07,35,2.30
2019,03,19,07,36,2.30
2019,03,19,07,37,2.30
2019,03,19,07,38,2.30
2019,03,19,07,39,2.30
2019,03,19,07,40,2.30
2019,03,19,07,41,2.20
2019,03,19,07,42,2.20
2019,03,19,07,43,2.20
2019,03,19,07,44,2.20
2019,03,19,07,45,2.20
2019,03,19,07,46,2.20
2019,03,19,07,47,2.20
2019,03,19,07,48,2.20
2019,03,19,07,49,2.20
2019,03,19,07,50,2.20
2019,03,19,07,51,2.20
2019,03,19,07,52,2.30
2019,03,19,07,53,2.30
2019,03,19,07,54,2.30
2019,03,19,07,55,2.30
2019,03,19,07,56,2.30
2019,03,19,07,57,2.40
2019,03,19,07,58,2.40
2019,03,19,07,59,2.50
2019,03,19,08,00,2.50
2019,03,19,08,01,2.60
2019,03,19,08,02,2.70
2019,03,19,08,03,2.70
2019,03,19,08,04,2.70
2019,03,19,08,05,2.80
2019,03,19,08,06,2.90
2019,03,19,08,07,2.90
2019,03,19,08,08,3.00
2019,03,19,08,09,3.00
2019,03,19,08,10,3.10
2019,03,19,08,11,3.10
2019,03,19,08,12,3.10
2019,03,19,08,13,3.20
2019,03,19,08,14,3.20
2019,03,19,08,15,3.30
2019,03,19,08,16,3.30
2019,03,19,08,17,3.40
2019,03,19,08,18,3.50
2019,03,19,08,19,3.60
2019,03,19,08,20,3.60
2019,03,19,08,21,3.70
2019,03,19,08,22,3.80
2019,03,19,08,23,3.80
2019,03,19,08,24,3.90
2019,03,19,08,25,4.00
2019,03,19,08,26,4.10
2019,03,19,08,27,4.10
2019,03,19,08,28,4.20
2019,03,19,08,29,4.30
2019,03,19,08,30,4.30
2019,03,19,08,31,4.40
2019,03,19,08,32,4.40
2019,03,19,08,33,4.50
2019,03,19,08,34,4.60
2019,03,19,08,35,4.60
2019,03,19,08,36,4.70
2019,03,19,08,37,4.70
2019,03,19,08,38,4.80
2019,03,19,08,39,4.80
2019,03,19,08,40,4.90
2019,03,19,08,41,4.90
2019,03,19,08,42,5.00
2019,03,19,08,43,5.10
2019,03,19,08,44,5.20
2019,03,19,08,45,5.20
2019,03,19,08,46,5.30
2019,03,19,08,47,5.40
2019,03,19,08,48,5.40
2019,03,19,08,49,5.50
2019,03,19,08,50,5.60
2019,03,19,08,51,5.60
2019,03,19,08,52,5.70
2019,03,19,08,53,5.70
2019,03,19,08,54,5.80
2019,03,19,08,55,5.80
2019,03,19,08,56,5.90
2019,03,19,08,57,5.90
2019,03,19,08,58,6.10
2019,03,19,08,59,6.20
2019,03,19,09,00,6.30
2019,03,19,09,01,6.50
2019,03,19,09,02,6.60
2019,03,19,09,03,6.80
2019,03,19,09,04,6.90
2019,03,19,09,05,7.10
2019,03,19,09,06,7.20
2019,03,19,09,07,7.30
2019,03,19,09,08,7.40
2019,03,19,09,09,7.40
2019,03,19,09,10,7.50
2019,03,19,09,11,7.60
2019,03,19,09,12,7.60
2019,03,19,09,13,7.60
2019,03,19,09,14,7.70
2019,03,19,09,15,7.70
2019,03,19,09,16,7.80
2019,03,19,09,17,7.80
2019,03,19,09,18,7.80
2019,03,19,09,19,7.80
2019,03,19,09,20,7.90
2019,03,19,09,21,7.90
2019,03,19,09,22,8.00
2019,03,19,09,23,8.00
2019,03,19,09,24,8.10
2019,03,19,09,25,8.10
2019,03,19,09,26,8.20
2019,03,19,09,27,8.20
2019,03,19,09,28,8.30
2019,03,19,09,29,8.30
2019,03,19,09,30,8.30
2019,03,19,09,31,8.30
2019,03,19,09,32,8.30
2019,03,19,09,33,8.30
2019,03,19,09,34,8.40
2019,03,19,09,35,8.40
2019,03,19,09,36,8.40
2019,03,19,09,37,8.40
2019,03,19,09,38,8.50
2019,03,19,09,39,8.60
2019,03,19,09,40,8.60
2019,03,19,09,41,8.70
2019,03,19,09,42,8.70
2019,03,19,09,43,8.80
2019,03,19,09,44,8.80
2019,03,19,09,45,8.90
2019,03,19,09,46,8.90
2019,03,19,09,47,9.00
2019,03,19,09,48,9.10
2019,03,19,09,49,9.10
2019,03,19,09,50,9.20
2019,03,19,09,51,9.30
2019,03,19,09,52,9.30
2019,03,19,09,53,9.40
2019,03,19,09,54,9.50
2019,03,19,09,55,9.60
2019,03,19,09,56,9.70
2019,03,19,09,57,9.80
2019,03,19,09,58,9.90
2019,03,19,09,59,9.90
2019,03,19,10,00,10.00
2019,03,19,10,01,10.00
2019,03,19,10,02,10.00
2019,03,19,10,03,10.10
2019,03,19,10,04,10.10
2019,03,19,10,05,10.20
2019,03,19,10,06,10.30
2019,03,19,10,07,10.30
2019,03,19,10,08,10.40
2019,03,19,10,09,10.50
2019,03,19,10,10,10.70
2019,03,19,10,11,10.80
2019,03,19,10,12,10.80
2019,03,19,10,13,10.80
2019,03,19,10,14,10.90
2019,03,19,10,15,10.90
2019,03,19,10,16,10.90
2019,03,19,10,17,10.90
2019,03,19,10,18,10.90
2019,03,19,10,19,10.80
2019,03,19,10,20,10.80
2019,03,19,10,21,10.80
2019,03,19,10,22,10.80
2019,03,19,10,23,10.80
2019,03,19,10,24,10.80
2019,03,19,10,25,10.80
2019,03,19,10,26,10.80
2019,03,19,10,27,10.80
2019,03,19,10,28,10.90
2019,03,19,10,29,10.90
2019,03,19,10,30,11.00
2019,03,19,10,31,11.10
2019,03,19,10,32,11.10
2019,03,19,10,33,11.20
2019,03,19,10,34,11.20
2019,03,19,10,35,11.20
2019,03,19,10,36,11.20
2019,03,19,10,37,11.30
2019,03,19,10,38,11.30
2019,03,19,10,39,11.30
2019,03,19,10,40,11.30
2019,03,19,10,41,11.30
2019,03,19,10,42,11.30
2019,03,19,10,43,11.30
2019,03,19,10,44,11.30
2019,03,19,10,45,11.30
2019,03,19,10,46,11.30
2019,03,19,10,47,11.30
2019,03,19,10,48,11.30
2019,03,19,10,49,11.30
2019,03,19,10,50,11.20
2019,03,19,10,51,11.30
2019,03,19,10,52,11.30
2019,03,19,10,53,11.30
2019,03,19,10,54,11.40
2019,03,19,10,55,11.50
2019,03,19,10,56,11.50
2019,03,19,10,57,11.60
2019,03,19,10,58,11.60
2019,03,19,10,59,11.60
2019,03,19,11,00,11.60
2019,03,19,11,01,11.60
2019,03,19,11,02,11.60
2019,03,19,11,03,11.60
2019,03,19,11,04,11.60
2019,03,19,11,05,11.60
2019,03,19,11,06,11.60
2019,03,19,11,07,11.60
2019,03,19,11,08,11.60
2019,03,19,11,09,11.50
2019,03,19,11,10,11.40
2019,03,19,11,11,11.40
2019,03,19,11,12,11.30
2019,03,19,11,13,11.30
2019,03,19,11,14,11.30
2019,03,19,11,15,11.30
2019,03,19,11,16,11.30
2019,03,19,11,17,11.30
2019,03,19,11,18,11.30
2019,03,19,11,19,11.40
2019,03,19,11,20,11.50
2019,03,19,11,21,11.60
2019,03,19,11,22,11.60
2019,03,19,11,23,11.70
2019,03,19,11,24,11.70
2019,03,19,11,25,11.80
2019,03,19,11,26,11.90
2019,03,19,11,27,12.00
2019,03,19,11,28,12.10
2019,03,19,11,29,12.20
2019,03,19,11,30,12.30
2019,03,19,11,31,12.40
2019,03,19,11,32,12.40
2019,03,19,11,33,12.40
2019,03,19,11,34,12.50
2019,03,19,11,35,12.50
2019,03,19,11,36,12.60
2019,03,19,11,37,12.60
2019,03,19,11,38,12.60
2019,03,19,11,39,12.70
2019,03,19,11,40,12.70
2019,03,19,11,41,12.60
2019,03,19,11,42,12.60
2019,03,19,11,43,12.50
2019,03,19,11,44,12.40
2019,03,19,11,45,12.30
2019,03,19,11,46,12.30
2019,03,19,11,47,12.30
2019,03,19,11,48,12.20
2019,03,19,11,49,12.20
2019,03,19,11,50,12.20
2019,03,19,11,51,12.20
2019,03,19,11,52,12.20
2019,03,19,11,53,12.10
2019,03,19,11,54,12.10
2019,03,19,11,55,12.10
2019,03,19,11,56,12.10
2019,03,19,11,57,12.10
2019,03,19,11,58,12.20
2019,03,19,11,59,12.20
2019,03,19,12,00,12.30
2019,03,19,12,01,12.40
2019,03,19,12,02,12.40
2019,03,19,12,03,12.40
2019,03,19,12,04,12.50
2019,03,19,12,05,12.50
2019,03,19,12,06,12.50
2019,03,19,12,07,12.60
2019,03,19,12,08,12.70
2019,03,19,12,09,12.70
2019,03,19,12,10,12.70
2019,03,19,12,11,12.60
2019,03,19,12,12,12.50
2019,03,19,12,13,12.40
2019,03,19,12,14,12.40
2019,03,19,12,15,12.40
2019,03,19,12,16,12.40
2019,03,19,12,17,12.40
2019,03,19,12,18,12.40
2019,03,19,12,19,12.30
2019,03,19,12,20,12.20
2019,03,19,12,21,12.20
2019,03,19,12,22,12.30
2019,03,19,12,23,12.40
2019,03,19,12,24,12.40
2019,03,19,12,25,12.50
2019,03,19,12,26,12.50
2019,03,19,12,27,12.60
2019,03,19,12,28,12.70
2019,03,19,12,29,12.80
2019,03,19,12,30,12.80
2019,03,19,12,31,12.90
2019,03,19,12,32,13.00
2019,03,19,12,33,13.10
2019,03,19,12,34,13.10
2019,03,19,12,35,13.00
2019,03,19,12,36,13.00
2019,03,19,12,37,13.00
2019,03,19,12,38,13.00
2019,03,19,12,39,13.00
2019,03,19,12,40,13.00
2019,03,19,12,41,13.00
2019,03,19,12,42,12.90
2019,03,19,12,43,12.90
2019,03,19,12,44,12.90
2019,03,19,12,45,12.90
2019,03,19,12,46,12.90
2019,03,19,12,47,12.90
2019,03,19,12,48,12.90
2019,03,19,12,49,13.00
2019,03,19,12,50,13.00
2019,03,19,12,51,13.00
2019,03,19,12,52,12.90
2019,03,19,12,53,12.90
2019,03,19,12,54,12.90
2019,03,19,12,55,13.00
2019,03,19,12,56,13.10
2019,03,19,12,57,13.10
2019,03,19,12,58,13.20
2019,03,19,12,59,13.20
2019,03,19,13,00,13.20
2019,03,19,13,01,13.20
2019,03,19,13,02,13.20
2019,03,19,13,03,13.20
2019,03,19,13,04,13.20
2019,03,19,13,05,13.30
2019,03,19,13,06,13.30
2019,03,19,13,07,13.40
2019,03,19,13,08,13.50
2019,03,19,13,09,13.60
2019,03,19,13,10,13.70
2019,03,19,13,11,13.80
2019,03,19,13,12,13.90
2019,03,19,13,13,14.00
2019,03,19,13,14,14.10
2019,03,19,13,15,14.10
2019,03,19,13,16,14.10
2019,03,19,13,17,14.10
2019,03,19,13,18,14.10
2019,03,19,13,19,14.10
2019,03,19,13,20,14.10
2019,03,19,13,21,14.00
2019,03,19,13,22,14.00
2019,03,19,13,23,14.10
2019,03,19,13,24,14.20
2019,03,19,13,25,14.20
2019,03,19,13,26,14.20
2019,03,19,13,27,14.20
2019,03,19,13,28,14.10
2019,03,19,13,29,14.10
2019,03,19,13,30,14.10
2019,03,19,13,31,14.10
2019,03,19,13,32,14.10
2019,03,19,13,33,14.10
2019,03,19,13,34,14.20
2019,03,19,13,35,14.30
2019,03,19,13,36,14.40
2019,03,19,13,37,14.50
2019,03,19,13,38,14.50
2019,03,19,13,39,14.50
2019,03,19,13,40,14.50
2019,03,19,13,41,14.50
2019,03,19,13,42,14.40
2019,03,19,13,43,14.40
2019,03,19,13,44,14.40
2019,03,19,13,45,14.40
2019,03,19,13,46,14.50
2019,03,19,13,47,14.50
2019,03,19,13,48,14.40
2019,03,19,13,49,14.40
2019,03,19,13,50,14.40
2019,03,19,13,51,14.40
2019,03,19,13,52,14.50
2019,03,19,13,53,14.50
2019,03,19,13,54,14.60
2019,03,19,13,55,14.60
2019,03,19,13,56,14.70
2019,03,19,13,57,14.70
2019,03,19,13,58,14.80
2019,03,19,13,59,14.90
2019,03,19,14,00,14.90
2019,03,19,14,01,15.00
2019,03,19,14,02,15.00
2019,03,19,14,03,15.00
2019,03,19,14,04,15.10
2019,03,19,14,05,15.10
2019,03,19,14,06,15.20
2019,03,19,14,07,15.20
2019,03,19,14,08,15.30
2019,03,19,14,09,15.30
2019,03,19,14,10,15.30
2019,03,19,14,11,15.30
2019,03,19,14,12,15.30
2019,03,19,14,13,15.30
2019,03,19,14,14,15.30
2019,03,19,14,15,15.30
2019,03,19,14,16,15.30
2019,03,19,14,17,15.20
2019,03,19,14,18,15.10
2019,03,19,14,19,15.00
2019,03,19,14,20,15.00
2019,03,19,14,21,14.90
2019,03,19,14,22,14.80
2019,03,19,14,23,14.80
2019,03,19,14,24,14.90
2019,03,19,14,25,14.80
2019,03,19,14,26,14.80
2019,03,19,14,27,14.80
2019,03,19,14,28,14.80
2019,03,19,14,29,14.80
2019,03,19,14,30,14.80
2019,03,19,14,31,14.90
2019,03,19,14,32,14.90
2019,03,19,14,33,14.90
2019,03,19,14,34,14.80
2019,03,19,14,35,14.90
2019,03,19,14,36,14.90
2019,03,19,14,37,14.90
2019,03,19,14,38,14.90
2019,03,19,14,39,14.90
2019,03,19,14,40,14.90
2019,03,19,14,41,14.90
2019,03,19,14,42,14.80
2019,03,19,14,43,14.80
2019,03,19,14,44,14.80
2019,03,19,14,45,14.70
2019,03,19,14,46,14.70
2019,03,19,14,47,14.70
2019,03,19,14,48,14.70
2019,03,19,14,49,14.70
2019,03,19,14,50,14.70
2019,03,19,14,51,14.70
2019,03,19,14,52,14.60
2019,03,19,14,53,14.60
2019,03,19,14,54,14.60
2019,03,19,14,55,14.60
2019,03,19,14,56,14.70
2019,03,19,14,57,14.80
2019,03,19,14,58,14.80
2019,03,19,14,59,14.80
2019,03,19,15,00,14.80
2019,03,19,15,01,14.80
2019,03,19,15,02,14.80
2019,03,19,15,03,14.80
2019,03,19,15,04,14.80
2019,03,19,15,05,14.90
2019,03,19,15,06,14.90
2019,03,19,15,07,14.90
2019,03,19,15,08,14.80
2019,03,19,15,09,14.80
2019,03,19,15,10,14.80
2019,03,19,15,11,14.90
2019,03,19,15,12,15.00
2019,03,19,15,13,15.10
2019,03,19,15,14,15.20
2019,03,19,15,15,15.40
2019,03,19,15,16,15.50
2019,03,19,15,17,15.70
2019,03,19,15,18,15.80
2019,03,19,15,19,15.90
2019,03,19,15,20,15.90
2019,03,19,15,21,16.00
2019,03,19,15,22,16.00
2019,03,19,15,23,16.00
2019,03,19,15,24,16.10
2019,03,19,15,25,16.10
2019,03,19,15,26,16.20
2019,03,19,15,27,16.20
2019,03,19,15,28,16.30
2019,03,19,15,29,16.30
2019,03,19,15,30,16.30
2019,03,19,15,31,16.40
2019,03,19,15,32,16.40
2019,03,19,15,33,16.40
2019,03,19,15,34,16.40
2019,03,19,15,35,16.30
2019,03,19,15,36,16.30
2019,03,19,15,37,16.20
2019,03,19,15,38,16.20
2019,03,19,15,39,16.20
2019,03,19,15,40,16.10
2019,03,19,15,41,16.00
2019,03,19,15,42,16.00
2019,03,19,15,43,15.90
2019,03,19,15,44,15.90
2019,03,19,15,45,15.90
2019,03,19,15,46,15.90
2019,03,19,15,47,15.90
2019,03,19,15,48,15.90
2019,03,19,15,49,15.90
2019,03,19,15,50,15.90
2019,03,19,15,51,15.90
2019,03,19,15,52,16.00
2019,03,19,15,53,16.00
2019,03,19,15,54,16.00
2019,03,19,15,55,16.10
2019,03,19,15,56,16.20
2019,03,19,15,57,16.20
2019,03,19,15,58,16.20
2019,03,19,15,59,16.20
2019,03,19,16,00,16.20
2019,03,19,16,01,16.30
2019,03,19,16,02,16.30
2019,03,19,16,03,16.20
2019,03,19,16,04,16.20
2019,03,19,16,05,16.20
2019,03,19,16,06,16.30
2019,03,19,16,07,16.30
2019,03,19,16,08,16.30
2019,03,19,16,09,16.20
2019,03,19,16,10,16.20
2019,03,19,16,11,16.20
2019,03,19,16,12,16.20
2019,03,19,16,13,16.10
2019,03,19,16,14,16.10
2019,03,19,16,15,16.00
2019,03,19,16,16,16.00
2019,03,19,16,17,16.10
2019,03,19,16,18,16.10
2019,03,19,16,19,16.10
2019,03,19,16,20,16.10
2019,03,19,16,21,16.00
2019,03,19,16,22,16.10
2019,03,19,16,23,16.10
2019,03,19,16,24,16.00
2019,03,19,16,25,16.00
2019,03,19,16,26,16.00
2019,03,19,16,27,15.90
2019,03,19,16,28,15.90
2019,03,19,16,29,15.90
2019,03,19,16,30,15.90
2019,03,19,16,31,15.90
2019,03,19,16,32,15.90
2019,03,19,16,33,15.90
2019,03,19,16,34,15.90
2019,03,19,16,35,15.80
2019,03,19,16,36,15.80
2019,03,19,16,37,15.80
2019,03,19,16,38,15.70
2019,03,19,16,39,15.70
2019,03,19,16,40,15.60
2019,03,19,16,41,15.50
2019,03,19,16,42,15.40
2019,03,19,16,43,15.40
2019,03,19,16,44,15.40
2019,03,19,16,45,15.40
2019,03,19,16,46,15.40
2019,03,19,16,47,15.40
2019,03,19,16,48,15.40
2019,03,19,16,49,15.40
2019,03,19,16,50,15.40
2019,03,19,16,51,15.40
2019,03,19,16,52,15.40
2019,03,19,16,53,15.50
2019,03,19,16,54,15.60
2019,03,19,16,55,15.70
2019,03,19,16,56,15.80
2019,03,19,16,57,15.80
2019,03,19,16,58,15.80
2019,03,19,16,59,15.80
2019,03,19,17,00,15.80
2019,03,19,17,01,15.80
2019,03,19,17,02,15.80
2019,03,19,17,03,15.80
2019,03,19,17,04,15.70
2019,03,19,17,05,15.50
2019,03,19,17,06,15.40
2019,03,19,17,07,15.20
2019,03,19,17,08,15.10
2019,03,19,17,09,15.00
2019,03,19,17,10,14.90
2019,03,19,17,11,14.70
2019,03,19,17,12,14.60
2019,03,19,17,13,14.60
2019,03,19,17,14,14.50
2019,03,19,17,15,14.40
2019,03,19,17,16,14.30
2019,03,19,17,17,14.20
2019,03,19,17,18,14.10
2019,03,19,17,19,14.00
2019,03,19,17,20,13.90
2019,03,19,17,21,13.90
2019,03,19,17,22,13.90
2019,03,19,17,23,13.90
2019,03,19,17,24,13.90
2019,03,19,17,25,13.90
2019,03,19,17,26,13.90
2019,03,19,17,27,13.90
2019,03,19,17,28,13.90
2019,03,19,17,29,13.90
2019,03,19,17,30,13.90
2019,03,19,17,31,13.90
2019,03,19,17,32,13.90
2019,03,19,17,33,13.90
2019,03,19,17,34,14.00
2019,03,19,17,35,14.00
2019,03,19,17,36,14.10
2019,03,19,17,37,14.20
2019,03,19,17,38,14.10
2019,03,19,17,39,14.10
2019,03,19,17,40,14.00
2019,03,19,17,41,13.90
2019,03,19,17,42,13.80
2019,03,19,17,43,13.80
2019,03,19,17,44,13.70
2019,03,19,17,45,13.70